Consulta los datos en tiempo real de la estación municipal de Folgueroles
| Hora UTC | 17:30 |
|---|---|
| Temperatura | 29.4 ºC |
| Humedad | 51.2 % |
| Presión | 1022.4 hPa |
| Pluja | 0.0 mm |
| Velocidad viento | 4.7 km/h |
| Dirección viento | SSW |
| Radiación solar | 38.8 W/m² |
| Temperatura (ºC) | Humedad (%) | Presión (hPa) | Velocidad viento (km/h) | Precipitación (mm) | Radiación solar (W/m²) | |||||||||||||
|---|---|---|---|---|---|---|---|---|---|---|---|---|---|---|---|---|---|---|
| Hora UTC | Aire | Humedad | Presión | Vel. | Dir. | Vel. Max | Dir. | Intent. máx 5 min. | Rad. Sol. | |||||||||
| 00:05 | 17.9 | 80.4 | 1024.3 | 5.2 | E | 5.2 | E | 0.0 | 0.1 | |||||||||
| 00:10 | 17.9 | 81.9 | 1024.3 | 5.6 | E | 7.1 | E | 0.0 | 0.1 | |||||||||
| 00:15 | 18.2 | 81.3 | 1024.2 | 6.1 | E | 7.8 | E | 0.0 | 0.1 | |||||||||
| 00:20 | 18.2 | 81.0 | 1024.2 | 6.4 | E | 8.5 | E | 0.0 | 0.1 | |||||||||
| 00:25 | 18.1 | 81.6 | 1024.3 | 5.9 | E | 7.8 | E | 0.0 | 0.1 | |||||||||
| 00:30 | 18.2 | 81.3 | 1024.3 | 5.6 | E | 7.8 | E | 0.0 | 0.1 | |||||||||
| 00:35 | 18.3 | 80.9 | 1024.3 | 5.1 | E | 8.5 | ENE | 0.0 | 0.1 | |||||||||
| 00:40 | 18.5 | 80.2 | 1024.3 | 5.9 | E | 8.1 | E | 0.0 | 0.1 | |||||||||
| 00:45 | 18.4 | 80.4 | 1024.3 | 5.3 | E | 7.1 | E | 0.0 | 0.1 | |||||||||
| 00:50 | 18.2 | 80.8 | 1024.3 | 2.9 | E | 4.6 | E | 0.0 | 0.1 | |||||||||
| 00:55 | 17.9 | 81.6 | 1024.3 | 3.4 | E | 4.9 | E | 0.0 | 0.1 | |||||||||
| 01:00 | 17.8 | 81.3 | 1024.3 | 3.4 | E | 4.9 | E | 0.0 | 0.1 | |||||||||
| 01:05 | 17.7 | 82.0 | 1024.2 | 6.0 | ESE | 8.5 | E | 0.0 | 0.1 | |||||||||
| 01:10 | 17.6 | 83.0 | 1024.2 | 7.0 | E | 8.1 | E | 0.0 | 0.1 | |||||||||
| 01:15 | 17.7 | 83.3 | 1024.2 | 7.5 | E | 9.2 | E | 0.0 | 0.1 | |||||||||
| 01:20 | 17.9 | 82.6 | 1024.2 | 7.2 | E | 9.2 | E | 0.0 | 0.1 | |||||||||
| 01:25 | 17.7 | 82.7 | 1024.2 | 6.8 | E | 9.2 | E | 0.0 | 0.1 | |||||||||
| 01:30 | 17.6 | 83.5 | 1024.2 | 5.7 | E | 9.2 | E | 0.0 | 0.1 | |||||||||
| 01:35 | 17.8 | 83.1 | 1024.2 | 6.3 | E | 8.1 | E | 0.0 | 0.1 | |||||||||
| 01:40 | 17.9 | 82.8 | 1024.2 | 6.5 | E | 8.1 | E | 0.0 | 0.1 | |||||||||
| 01:45 | 17.7 | 83.2 | 1024.2 | 6.5 | E | 7.8 | E | 0.0 | 0.1 | |||||||||
| 01:50 | 17.7 | 83.7 | 1024.2 | 6.4 | E | 8.1 | E | 0.0 | 0.2 | |||||||||
| 01:55 | 17.8 | 83.3 | 1024.2 | 5.1 | E | 7.4 | E | 0.0 | 0.1 | |||||||||
| 02:00 | 17.9 | 83.2 | 1024.2 | 5.3 | E | 7.4 | E | 0.0 | 0.1 | |||||||||
| 02:05 | 17.8 | 83.1 | 1024.1 | 6.6 | E | 8.5 | E | 0.0 | 0.1 | |||||||||
| 02:10 | 17.6 | 83.9 | 1024.1 | 5.4 | E | 8.1 | ENE | 0.0 | 0.2 | |||||||||
| 02:15 | 17.5 | 84.6 | 1024.1 | 5.1 | E | 7.4 | ESE | 0.0 | 0.2 | |||||||||
| 02:20 | 17.7 | 84.3 | 1024.1 | 5.2 | E | 6.7 | E | 0.0 | 0.2 | |||||||||
| 02:25 | 17.6 | 84.3 | 1024.2 | 4.9 | E | 6.4 | ESE | 0.0 | 0.2 | |||||||||
| 02:30 | 17.3 | 84.6 | 1024.2 | 4.8 | E | 6.0 | E | 0.0 | 0.2 | |||||||||
| 02:35 | 17.1 | 85.4 | 1024.2 | 4.7 | E | 5.6 | E | 0.0 | 0.1 | |||||||||
| 02:40 | 17.1 | 86.0 | 1024.2 | 4.9 | E | 6.0 | E | 0.0 | 0.1 | |||||||||
| 02:45 | 17.2 | 85.7 | 1024.1 | 4.3 | E | 6.4 | E | 0.0 | 0.1 | |||||||||
| 02:50 | 17.2 | 85.2 | 1024.1 | 5.5 | E | 6.7 | ESE | 0.0 | 0.1 | |||||||||
| 02:55 | 17.0 | 86.0 | 1024.1 | 5.2 | E | 6.7 | E | 0.0 | 0.1 | |||||||||
| 03:00 | 16.9 | 86.6 | 1024.1 | 4.5 | E | 7.1 | E | 0.0 | 0.1 | |||||||||
| 03:05 | 17.1 | 86.1 | 1024.1 | 5.2 | E | 7.4 | E | 0.0 | 0.1 | |||||||||
| 03:10 | 17.0 | 86.1 | 1024.1 | 4.8 | E | 6.4 | E | 0.0 | 0.1 | |||||||||
| 03:15 | 16.9 | 86.4 | 1024.1 | 3.3 | E | 5.6 | E | 0.0 | 0.1 | |||||||||
| 03:20 | 16.7 | 86.8 | 1024.1 | 3.1 | E | 6.0 | E | 0.0 | 0.1 | |||||||||
| 03:25 | 16.5 | 87.4 | 1024.0 | 5.7 | E | 7.4 | E | 0.0 | 0.1 | |||||||||
| 03:30 | 16.5 | 87.6 | 1024.0 | 5.5 | E | 7.4 | E | 0.0 | 0.1 | |||||||||
| 03:35 | 16.5 | 88.2 | 1024.0 | 6.1 | E | 7.1 | E | 0.0 | 0.1 | |||||||||
| 03:40 | 16.6 | 88.0 | 1024.0 | 6.0 | E | 7.4 | E | 0.0 | 0.1 | |||||||||
| 03:45 | 16.7 | 87.3 | 1023.9 | 5.4 | E | 7.8 | E | 0.0 | 0.1 | |||||||||
| 03:50 | 16.8 | 87.0 | 1023.9 | 6.0 | E | 8.1 | ESE | 0.0 | 0.1 | |||||||||
| 03:55 | 16.8 | 87.0 | 1023.8 | 5.2 | E | 7.1 | E | 0.0 | 0.1 | |||||||||
| 04:00 | 16.8 | 86.7 | 1023.8 | 4.8 | E | 6.4 | E | 0.0 | 0.1 | |||||||||
| 04:05 | 16.9 | 86.7 | 1023.8 | 4.4 | E | 6.7 | E | 0.0 | 0.1 | |||||||||
| 04:10 | 16.9 | 86.4 | 1023.8 | 4.5 | E | 6.4 | E | 0.0 | 0.1 | |||||||||
| 04:15 | 16.7 | 86.9 | 1023.8 | 5.5 | E | 7.4 | E | 0.0 | 0.1 | |||||||||
| 04:20 | 16.4 | 87.8 | 1023.8 | 5.9 | E | 7.8 | ESE | 0.0 | 0.1 | |||||||||
| 04:25 | 16.3 | 88.3 | 1023.7 | 5.6 | E | 7.4 | E | 0.0 | 0.1 | |||||||||
| 04:30 | 16.4 | 88.5 | 1023.7 | 6.1 | E | 7.8 | ESE | 0.0 | 0.1 | |||||||||
| 04:35 | 16.4 | 88.1 | 1023.6 | 6.0 | E | 7.4 | E | 0.0 | 0.1 | |||||||||
| 04:40 | 16.4 | 88.0 | 1023.6 | 6.0 | E | 7.4 | E | 0.0 | 0.1 | |||||||||
| 04:45 | 16.3 | 88.2 | 1023.7 | 5.1 | E | 6.7 | E | 0.0 | 0.1 | |||||||||
| 04:50 | 16.3 | 88.3 | 1023.7 | 5.1 | E | 6.4 | ESE | 0.0 | 0.1 | |||||||||
| 04:55 | 16.3 | 88.3 | 1023.8 | 4.0 | E | 5.3 | E | 0.0 | 0.1 | |||||||||
| 05:00 | 16.3 | 88.3 | 1023.8 | 5.2 | E | 6.4 | E | 0.0 | 0.4 | |||||||||
| 05:05 | 16.2 | 88.6 | 1023.8 | 4.9 | E | 6.7 | ESE | 0.0 | 0.9 | |||||||||
| 05:10 | 16.2 | 88.9 | 1023.8 | 4.5 | E | 6.4 | ENE | 0.0 | 1.8 | |||||||||
| 05:15 | 16.3 | 88.8 | 1023.9 | 4.2 | ENE | 5.6 | E | 0.0 | 3.1 | |||||||||
| 05:20 | 16.4 | 88.6 | 1023.9 | 4.7 | E | 6.4 | E | 0.0 | 5.0 | |||||||||
| 05:25 | 16.3 | 88.3 | 1024.0 | 3.5 | E | 5.3 | E | 0.0 | 7.4 | |||||||||
| 05:30 | 16.1 | 88.8 | 1024.0 | 2.8 | ESE | 4.6 | E | 0.0 | 10.0 | |||||||||
| 05:35 | 16.0 | 89.4 | 1024.1 | 3.7 | E | 6.4 | E | 0.0 | 12.6 | |||||||||
| 05:40 | 15.9 | 89.6 | 1024.1 | 3.9 | E | 5.6 | E | 0.0 | 15.1 | |||||||||
| 05:45 | 15.9 | 89.8 | 1024.2 | 2.6 | E | 3.9 | E | 0.0 | 17.6 | |||||||||
| 05:50 | 15.9 | 89.7 | 1024.2 | 4.9 | E | 6.4 | E | 0.0 | 19.8 | |||||||||
| 05:55 | 15.9 | 89.9 | 1024.2 | 3.9 | E | 5.6 | E | 0.0 | 22.1 | |||||||||
| 06:00 | 16.0 | 89.7 | 1024.2 | 4.5 | E | 5.6 | E | 0.0 | 24.3 | |||||||||
| 06:05 | 16.1 | 89.6 | 1024.3 | 4.1 | E | 5.3 | E | 0.0 | 26.4 | |||||||||
| 06:10 | 16.3 | 89.0 | 1024.3 | 3.7 | E | 6.4 | ESE | 0.0 | 28.6 | |||||||||
| 06:15 | 16.4 | 88.6 | 1024.3 | 5.8 | E | 7.1 | E | 0.0 | 30.7 | |||||||||
| 06:20 | 16.5 | 88.1 | 1024.3 | 3.1 | E | 6.4 | E | 0.0 | 32.8 | |||||||||
| 06:25 | 16.7 | 88.2 | 1024.5 | 0.6 | ESE | 2.5 | E | 0.0 | 34.9 | |||||||||
| 06:30 | 16.9 | 87.6 | 1024.5 | 0.0 | NNE | 0.0 | SE | 0.0 | 63.5 | |||||||||
| 06:35 | 17.1 | 86.8 | 1024.5 | 0.0 | NNE | 0.0 | SSE | 0.0 | 163.5 | |||||||||
| 06:40 | 17.3 | 85.5 | 1024.5 | 0.6 | SE | 2.8 | SE | 0.0 | 180.3 | |||||||||
| 06:45 | 18.0 | 82.9 | 1024.5 | 1.0 | SE | 3.9 | ESE | 0.0 | 195.6 | |||||||||
| 06:50 | 18.7 | 79.8 | 1024.5 | 0.2 | S | 2.5 | SW | 0.0 | 210.9 | |||||||||
| 06:55 | 19.1 | 77.5 | 1024.5 | 0.8 | SW | 2.5 | SW | 0.0 | 226.0 | |||||||||
| 07:00 | 18.8 | 79.1 | 1024.5 | 0.0 | NNE | 0.0 | WSW | 0.0 | 240.5 | |||||||||
| 07:05 | 18.8 | 79.4 | 1024.5 | 0.3 | W | 1.8 | WSW | 0.0 | 256.0 | |||||||||
| 07:10 | 18.9 | 78.8 | 1024.5 | 0.9 | WNW | 2.5 | W | 0.0 | 271.5 | |||||||||
| 07:15 | 19.2 | 77.9 | 1024.5 | 1.4 | W | 2.5 | W | 0.0 | 286.3 | |||||||||
| 07:20 | 19.4 | 77.1 | 1024.5 | 2.1 | WNW | 3.9 | WNW | 0.0 | 301.5 | |||||||||
| 07:25 | 19.7 | 76.2 | 1024.6 | 0.6 | WNW | 3.5 | NW | 0.0 | 316.2 | |||||||||
| 07:30 | 20.0 | 74.8 | 1024.6 | 2.1 | W | 4.6 | WSW | 0.0 | 330.5 | |||||||||
| 07:35 | 20.3 | 73.3 | 1024.6 | 2.0 | W | 3.9 | WNW | 0.0 | 344.3 | |||||||||
| 07:40 | 20.3 | 72.7 | 1024.6 | 2.2 | WNW | 3.5 | NW | 0.0 | 359.5 | |||||||||
| 07:45 | 20.5 | 72.5 | 1024.5 | 0.2 | WSW | 2.8 | WSW | 0.0 | 374.2 | |||||||||
| 07:50 | 20.8 | 70.8 | 1024.5 | 2.2 | W | 4.2 | W | 0.0 | 388.3 | |||||||||
| 07:55 | 21.2 | 69.3 | 1024.5 | 1.6 | WSW | 3.5 | SW | 0.0 | 403.7 | |||||||||
| 08:00 | 21.5 | 68.0 | 1024.5 | 1.0 | W | 3.5 | WSW | 0.0 | 418.9 | |||||||||
| 08:05 | 21.9 | 67.0 | 1024.4 | 1.9 | W | 5.3 | WSW | 0.0 | 432.7 | |||||||||
| 08:10 | 22.2 | 65.8 | 1024.4 | 1.7 | WSW | 5.3 | SW | 0.0 | 446.9 | |||||||||
| 08:15 | 22.4 | 66.1 | 1024.4 | 1.7 | NW | 4.9 | N | 0.0 | 460.1 | |||||||||
| 08:20 | 22.7 | 64.7 | 1024.4 | 2.3 | W | 6.0 | W | 0.0 | 474.6 | |||||||||
| 08:25 | 22.8 | 64.3 | 1024.4 | 2.0 | WNW | 4.2 | WNW | 0.0 | 488.0 | |||||||||
| 08:30 | 23.0 | 63.4 | 1024.4 | 2.8 | NW | 4.9 | W | 0.0 | 501.6 | |||||||||
| 08:35 | 23.3 | 62.9 | 1024.4 | 2.4 | WNW | 5.3 | NW | 0.0 | 477.8 | |||||||||
| 08:40 | 23.7 | 61.8 | 1024.4 | 2.9 | NW | 5.3 | NW | 0.0 | 518.7 | |||||||||
| 08:45 | 24.0 | 60.8 | 1024.5 | 3.4 | WNW | 5.6 | NNW | 0.0 | 538.1 | |||||||||
| 08:50 | 24.4 | 59.8 | 1024.5 | 3.8 | WNW | 6.4 | NW | 0.0 | 550.5 | |||||||||
| 08:55 | 24.7 | 58.8 | 1024.6 | 3.7 | NW | 7.4 | NW | 0.0 | 562.0 | |||||||||
| 09:00 | 25.2 | 57.3 | 1024.6 | 2.6 | NW | 7.4 | WNW | 0.0 | 573.9 | |||||||||
| 09:05 | 25.7 | 54.5 | 1024.5 | 2.9 | NW | 7.8 | NW | 0.0 | 586.3 | |||||||||
| 09:10 | 26.3 | 52.6 | 1024.5 | 4.7 | WNW | 7.1 | WSW | 0.0 | 596.7 | |||||||||
| 09:15 | 26.5 | 49.8 | 1024.5 | 2.5 | WNW | 7.1 | NNW | 0.0 | 609.6 | |||||||||
| 09:20 | 26.8 | 49.6 | 1024.5 | 3.0 | NW | 7.4 | NNW | 0.0 | 619.7 | |||||||||
| 09:25 | 26.8 | 48.0 | 1024.5 | 2.4 | N | 6.7 | W | 0.0 | 630.4 | |||||||||
| 09:30 | 27.0 | 47.5 | 1024.5 | 4.7 | WNW | 10.2 | NW | 0.0 | 640.0 | |||||||||
| 09:35 | 27.0 | 47.4 | 1024.5 | 4.2 | NNW | 10.2 | NW | 0.0 | 650.7 | |||||||||
| 09:40 | 27.3 | 46.2 | 1024.5 | 3.6 | NNW | 9.9 | NW | 0.0 | 660.8 | |||||||||
| 09:45 | 27.5 | 45.2 | 1024.5 | 2.1 | SSW | 8.5 | W | 0.0 | 671.3 | |||||||||
| 09:50 | 28.0 | 44.5 | 1024.5 | 3.9 | WNW | 10.6 | WNW | 0.0 | 680.0 | |||||||||
| 09:55 | 28.4 | 43.4 | 1024.4 | 5.8 | WNW | 10.2 | W | 0.0 | 690.0 | |||||||||
| 10:00 | 28.3 | 42.4 | 1024.4 | 3.6 | WNW | 7.1 | WSW | 0.0 | 699.7 | |||||||||
| 10:05 | 28.5 | 41.8 | 1024.4 | 4.1 | W | 8.1 | WSW | 0.0 | 706.6 | |||||||||
| 10:10 | 28.6 | 40.6 | 1024.4 | 1.2 | ESE | 8.1 | SSW | 0.0 | 713.2 | |||||||||
| 10:15 | 28.7 | 40.5 | 1024.4 | 3.3 | SSE | 8.1 | S | 0.0 | 719.3 | |||||||||
| 10:20 | 28.9 | 40.5 | 1024.4 | 3.2 | S | 7.4 | WNW | 0.0 | 727.3 | |||||||||
| 10:25 | 29.4 | 40.1 | 1024.3 | 5.5 | WSW | 11.6 | WSW | 0.0 | 733.4 | |||||||||
| 10:30 | 29.7 | 38.3 | 1024.3 | 5.9 | SW | 13.1 | WSW | 0.0 | 741.8 | |||||||||
| 10:35 | 30.0 | 37.0 | 1024.2 | 4.6 | WSW | 9.5 | WSW | 0.0 | 749.5 | |||||||||
| 10:40 | 29.9 | 38.0 | 1024.2 | 4.8 | W | 13.1 | WSW | 0.0 | 755.3 | |||||||||
| 10:45 | 30.3 | 37.0 | 1024.0 | 4.4 | WSW | 9.5 | SW | 0.0 | 761.1 | |||||||||
| 10:50 | 30.2 | 37.1 | 1024.0 | 1.3 | SE | 3.9 | NNE | 0.0 | 765.8 | |||||||||
| 10:55 | 30.6 | 36.8 | 1023.8 | 1.7 | N | 4.2 | ENE | 0.0 | 772.4 | |||||||||
| 11:00 | 31.0 | 36.0 | 1023.8 | 4.0 | SW | 16.6 | WSW | 0.0 | 777.2 | |||||||||
| 11:05 | 31.3 | 34.7 | 1023.7 | 6.5 | WSW | 21.2 | W | 0.0 | 781.7 | |||||||||
| 11:10 | 31.1 | 35.9 | 1023.7 | 6.1 | W | 18.0 | WSW | 0.0 | 787.9 | |||||||||
| 11:15 | 30.6 | 35.3 | 1023.6 | 5.7 | W | 13.4 | SW | 0.0 | 790.7 | |||||||||
| 11:20 | 30.5 | 35.9 | 1023.6 | 4.7 | WSW | 13.8 | SSW | 0.0 | 791.3 | |||||||||
| 11:25 | 30.9 | 34.9 | 1023.6 | 2.6 | SSW | 6.7 | S | 0.0 | 791.2 | |||||||||
| 11:30 | 31.2 | 34.3 | 1023.6 | 3.3 | ESE | 8.8 | ESE | 0.0 | 788.1 | |||||||||
| 11:35 | 31.2 | 34.4 | 1023.4 | 2.0 | N | 6.0 | NW | 0.0 | 790.5 | |||||||||
| 11:40 | 31.4 | 34.5 | 1023.4 | 7.0 | W | 16.2 | WNW | 0.0 | 796.4 | |||||||||
| 11:45 | 32.0 | 33.7 | 1023.4 | 8.6 | SW | 14.1 | SW | 0.0 | 797.1 | |||||||||
| 11:50 | 32.4 | 32.7 | 1023.4 | 9.5 | SW | 16.6 | SSW | 0.0 | 803.0 | |||||||||
| 11:55 | 31.7 | 33.3 | 1023.4 | 4.4 | SW | 13.1 | S | 0.0 | 803.0 | |||||||||
| 12:00 | 31.7 | 33.5 | 1023.4 | 5.1 | WSW | 10.2 | SW | 0.0 | 801.0 | |||||||||
| 12:05 | 31.6 | 33.5 | 1023.3 | 4.4 | NW | 10.9 | WNW | 0.0 | 797.7 | |||||||||
| 12:10 | 31.7 | 33.4 | 1023.3 | 6.4 | W | 17.3 | WSW | 0.0 | 799.9 | |||||||||
| 12:15 | 32.7 | 31.5 | 1023.1 | 10.1 | WSW | 18.7 | WSW | 0.0 | 798.2 | |||||||||
| 12:20 | 32.8 | 31.4 | 1023.1 | 7.4 | SW | 15.9 | SW | 0.0 | 795.9 | |||||||||
| 12:25 | 32.9 | 30.7 | 1023.1 | 1.6 | NW | 7.1 | N | 0.0 | 794.0 | |||||||||
| 12:30 | 32.4 | 31.6 | 1023.1 | 6.7 | NNW | 13.8 | NNW | 0.0 | 791.1 | |||||||||
| 12:35 | 32.5 | 31.7 | 1023.0 | 7.5 | WNW | 13.4 | WNW | 0.0 | 786.5 | |||||||||
| 12:40 | 32.4 | 31.4 | 1023.0 | 5.9 | NW | 13.8 | NNW | 0.0 | 781.3 | |||||||||
| 12:45 | 32.5 | 31.3 | 1022.9 | 4.6 | SSW | 15.2 | SW | 0.0 | 770.6 | |||||||||
| 12:50 | 32.5 | 31.3 | 1022.9 | 4.2 | ESE | 10.9 | SSE | 0.0 | 764.2 | |||||||||
| 12:55 | 32.9 | 30.4 | 1022.8 | 7.0 | SE | 15.2 | SE | 0.0 | 749.9 | |||||||||
| 13:00 | 32.8 | 30.5 | 1022.8 | 3.6 | S | 8.8 | SSE | 0.0 | 751.1 | |||||||||
| 13:05 | 32.9 | 30.7 | 1022.7 | 3.3 | SE | 8.5 | S | 0.0 | 742.9 | |||||||||
| 13:10 | 33.0 | 30.2 | 1022.7 | 2.2 | WNW | 7.8 | WNW | 0.0 | 731.9 | |||||||||
| 13:15 | 33.9 | 29.7 | 1022.7 | 5.5 | WSW | 8.8 | WSW | 0.0 | 724.3 | |||||||||
| 13:20 | 34.6 | 28.7 | 1022.7 | 7.8 | SW | 14.8 | WSW | 0.0 | 724.0 | |||||||||
| 13:25 | 33.8 | 29.2 | 1022.6 | 5.0 | SW | 15.2 | SSW | 0.0 | 714.0 | |||||||||
| 13:30 | 33.4 | 30.0 | 1022.6 | 4.9 | S | 15.5 | S | 0.0 | 714.5 | |||||||||
| 13:35 | 33.6 | 30.1 | 1022.6 | 7.1 | S | 14.1 | SSE | 0.0 | 706.4 | |||||||||
| 13:40 | 33.7 | 29.7 | 1022.6 | 9.1 | SSW | 22.6 | SSW | 0.0 | 698.1 | |||||||||
| 13:45 | 33.8 | 29.9 | 1022.5 | 3.8 | SW | 8.8 | SW | 0.0 | 689.8 | |||||||||
| 13:50 | 34.1 | 29.2 | 1022.5 | 7.1 | SSW | 15.5 | SW | 0.0 | 684.3 | |||||||||
| 13:55 | 33.8 | 29.5 | 1022.4 | 3.6 | W | 12.4 | SW | 0.0 | 674.8 | |||||||||
| 14:00 | 34.0 | 29.5 | 1022.4 | 8.2 | SW | 16.9 | WSW | 0.0 | 662.7 | |||||||||
| 14:05 | 34.1 | 29.0 | 1022.3 | 6.5 | S | 15.5 | SSW | 0.0 | 650.6 | |||||||||
| 14:10 | 34.0 | 29.6 | 1022.3 | 5.5 | SSW | 14.1 | SSE | 0.0 | 638.1 | |||||||||
| 14:15 | 33.8 | 30.6 | 1022.1 | 13.5 | SSW | 25.1 | WSW | 0.0 | 628.4 | |||||||||
| 14:20 | 34.0 | 30.9 | 1022.1 | 7.9 | SW | 18.0 | SSW | 0.0 | 604.6 | |||||||||
| 14:25 | 34.1 | 30.6 | 1022.0 | 13.8 | SW | 24.3 | WSW | 0.0 | 578.9 | |||||||||
| 14:30 | 33.8 | 31.1 | 1022.0 | 10.5 | SW | 20.1 | WSW | 0.0 | 594.3 | |||||||||
| 14:35 | 33.9 | 31.0 | 1022.0 | 11.3 | SW | 21.2 | SW | 0.0 | 580.1 | |||||||||
| 14:40 | 34.0 | 30.8 | 1022.0 | 12.0 | SW | 20.1 | SW | 0.0 | 568.1 | |||||||||
| 14:45 | 33.9 | 31.2 | 1022.1 | 11.2 | SSW | 24.0 | SSW | 0.0 | 555.6 | |||||||||
| 14:50 | 33.4 | 32.3 | 1022.1 | 14.6 | SW | 23.3 | SW | 0.0 | 541.0 | |||||||||
| 14:55 | 33.2 | 33.3 | 1022.1 | 12.0 | SW | 24.3 | SW | 0.0 | 529.0 | |||||||||
| 15:00 | 33.1 | 33.6 | 1022.1 | 14.9 | SSW | 26.5 | S | 0.0 | 519.3 | |||||||||
| 15:05 | 32.6 | 35.7 | 1022.1 | 12.5 | SSW | 22.2 | S | 0.0 | 506.2 | |||||||||
| 15:10 | 32.5 | 36.6 | 1022.1 | 14.5 | SSW | 30.3 | SSW | 0.0 | 493.7 | |||||||||
| 15:15 | 32.3 | 38.1 | 1022.1 | 12.2 | S | 26.5 | S | 0.0 | 481.3 | |||||||||
| 15:20 | 32.3 | 38.6 | 1022.1 | 13.8 | SW | 24.0 | SW | 0.0 | 468.7 | |||||||||
| 15:25 | 32.1 | 39.2 | 1022.1 | 13.1 | SSW | 24.0 | S | 0.0 | 452.3 | |||||||||
| 15:30 | 31.8 | 40.2 | 1022.1 | 15.2 | SSW | 24.7 | SSW | 0.0 | 438.3 | |||||||||
| 15:35 | 31.6 | 40.7 | 1022.1 | 10.1 | S | 19.4 | SSW | 0.0 | 423.5 | |||||||||
| 15:40 | 31.8 | 40.8 | 1022.1 | 11.9 | SSW | 28.9 | SSW | 0.0 | 408.4 | |||||||||
| 15:45 | 31.9 | 40.6 | 1022.1 | 10.9 | SSW | 18.4 | SSW | 0.0 | 392.2 | |||||||||
| 15:50 | 31.7 | 41.4 | 1022.1 | 11.7 | SSW | 19.4 | SSW | 0.0 | 377.5 | |||||||||
| 15:55 | 31.5 | 42.4 | 1022.1 | 10.4 | SSW | 18.4 | SSW | 0.0 | 361.9 | |||||||||
| 16:00 | 31.6 | 42.5 | 1022.1 | 7.6 | SSE | 17.3 | S | 0.0 | 346.0 | |||||||||
| 16:05 | 31.6 | 42.8 | 1022.2 | 9.0 | SSW | 22.9 | SSW | 0.0 | 334.8 | |||||||||
| 16:10 | 31.5 | 43.1 | 1022.2 | 10.9 | SSW | 19.4 | SSW | 0.0 | 320.4 | |||||||||
| 16:15 | 31.3 | 43.5 | 1022.2 | 8.4 | SSW | 14.8 | SSW | 0.0 | 304.1 | |||||||||
| 16:20 | 31.3 | 43.7 | 1022.2 | 11.0 | SSW | 20.1 | SW | 0.0 | 288.4 | |||||||||
| 16:25 | 31.1 | 44.7 | 1022.2 | 6.3 | SSE | 13.8 | SE | 0.0 | 274.7 | |||||||||
| 16:30 | 31.0 | 45.1 | 1022.2 | 7.5 | S | 14.5 | SSE | 0.0 | 261.7 | |||||||||
| 16:35 | 30.9 | 45.7 | 1022.3 | 10.8 | S | 20.5 | SSW | 0.0 | 245.9 | |||||||||
| 16:40 | 30.5 | 47.3 | 1022.3 | 6.2 | SSE | 15.2 | SSW | 0.0 | 228.8 | |||||||||
| 16:45 | 30.4 | 48.2 | 1022.3 | 7.0 | S | 16.2 | SSW | 0.0 | 214.3 | |||||||||
| 16:50 | 30.3 | 48.0 | 1022.3 | 8.5 | SSW | 16.6 | SSE | 0.0 | 200.1 | |||||||||
| 16:55 | 30.3 | 47.7 | 1022.3 | 9.4 | SSW | 15.9 | SSW | 0.0 | 185.3 | |||||||||
| 17:00 | 30.2 | 48.2 | 1022.3 | 9.5 | SSW | 15.9 | SSW | 0.0 | 171.8 | |||||||||
| 17:05 | 30.0 | 48.7 | 1022.3 | 6.2 | S | 11.3 | SSW | 0.0 | 119.9 | |||||||||
| 17:10 | 29.8 | 49.8 | 1022.3 | 4.1 | SSE | 11.6 | SSE | 0.0 | 52.6 | |||||||||
| 17:15 | 29.7 | 50.2 | 1022.4 | 4.6 | SSE | 9.9 | ESE | 0.0 | 48.8 | |||||||||
| 17:20 | 29.7 | 50.7 | 1022.4 | 5.3 | S | 10.2 | S | 0.0 | 45.4 | |||||||||
| 17:25 | 29.6 | 51.0 | 1022.4 | 6.9 | S | 12.0 | SW | 0.0 | 42.2 | |||||||||
| 17:30 | 29.4 | 51.2 | 1022.4 | 4.7 | SSW | 9.9 | SSW | 0.0 | 38.8 | |||||||||
| Máxima | 34.6 | 89.9 | 1024.6 | 15.2 | SSW | 30.3 | SSW | 0.0 | 803.0 | |||||||||
| Mínima | 15.9 | 28.7 | 1022.0 | |||||||||||||||
| Total | 0.0 | |||||||||||||||||